sat.trackr.live / text

‹ back to catalog

UNKNOWN

NORAD 87565

UNKNOWN UNKNOWN UNKNOWN

§ Identity

Operator
Country
Launch date
Launch site
Launch vehicle
Mass (kg)
RCS (m²)

External: N2YO · Heavens-Above

§ Orbital elements

Epoch: 2026-09-11T06:58:42.375072Z

Period
102.37 min
Inclination
99.9479°
Eccentricity
0.0171608
Mean motion
14.06598899 rev/d
Perigee alt
746.6 km
Apogee alt
995.4 km
Semi-major
7,249.2 km
B*
4.6570e-4
RAAN
277.8361°
Arg perigee
152.4860°
Mean anomaly
208.5519°
Rev number
65,474

§ Raw data

UNKNOWN1 87565U          26254.29076823  .00000831  00000+0  46570-3 0  99932 87565  99.9479 277.8361 0171608 152.4860 208.5519 14.06598899654748

JSON: /api/v1/satellites/87565 · /tle

For live sub-satellite position, see the globe view (requires WebGL).

§ Visibility from observer

Set your observer location to see the next 7 days of passes ≥ 10°. The values pass through the URL so the page stays shareable.

No JS? Fill the form by hand. The geolocation button needs JavaScript.